Showing default

ICEYE-X26, 56961

Orbit data source: Space-Track

ICEYE-X26, 56961 is a payload satellite owned by ICEYE US (US) in SSO that was launched on Mon, 12 Jun 2023 UTC via an FALCON 9 launch vehicle from the Air Force Western Test Range (AFWTR). Payload-class satellites include a variety of spacecraft equipped with specific instruments for various scientific and technological missions. These include communications satellites like Starlink; space stations such as the ISS; scientific satellites like the Hubble; Earth observation satellites from companies like Planet Labs, Umbra, and HawkEye 360; GPS; miniature CubeSats for education and research; and military/defense satellites.

Loading next visibility...
Identifier
56961, 2023-084AF
Orbit
SSO
Last TLE update
1 day ago
Origin
Manufacturer
ICEYE
Mission
Operational Commercial Radar Imaging
Bus & Motor
ICEYE, Unknown motor
Mass
90 kg wet, 89 kg dry
Launch date (UTC)
Icon of a cake. It is the launch day of the satellite!2023-06-12 (2 years ago)
Launch vehicle
FALCON 9
Launch site
Air Force Western Test Range (AFWTR)
Object type
Payload
Rocket body
Debris
Shape & HBR
Box + 1 Pan, 3.25 m
Radar Cross Section
0.825 m², Medium (>0.1 m² and < 1m²)

Expand to show TLE details & history

TLE from 1 day ago
0 ICEYE-X26
1 56961U 23084AF  25162.34554460  .00023699  00000-0  45095-3 0  9996
2 56961  97.5616 295.3908 0002897 143.6930 216.4517 15.48228235111224
Epoch: 2025-06-11T08:17Z
TLE epoch observation values (Epoch: 2025-06-11T08:17:35.053Z)
Latitude
-0.00002°
Longitude
-88.93463°
Altitude
426.618 km
Speed
7.655 km/s
True Right ascension
19h 41m 33s
True Declination
0° 00' 00"
Sunlit
Object was in full shadow at epoch
Visualization orbit readout
Latitude
71.54284°
Longitude
-110.8668°
Altitude
433.279 km
Speed
7.659 km/s
Apparent Right ascension
15h 14m 40s
Apparent Declination
20° 55' 55"
Sunlit
Object is in daylight
Visualization observer readout
Local Sidereal Time
02:02:11
Azimuth
340.999° N
Elevation
-26.846°
Doppler factor
1
Orbital elements
Apogee altitude
420.813 km
Perigee altitude
416.875 km
Semi-major axis
6,796.981 km
Eccentricity
0.00029
Inclination
97.5616°
RAAN
295.3908°
Arg. of periapsis
143.693°
True anomaly
Unknown
Mean anomaly
216.4517°
Eccentric anomaly
Unknown
Mean motion
3.87319 °/min
Orbital period
92.95 mins
BSTAR
0.00045095
Loading maneuver chart data...
Loading SW <> Apogee altitude chart data...
Loading historical data...
Loading historical data...
Loading historical data...
Loading historical data...
Loading historical data...
Loading historical data...
Loading historical data...

ICEYE-X26 Visibility forecast

Observer location: undefined°, undefined°

Span
Click to sort rows by Start time (UTC) header in descending order
Start Az.
Max El. time (UTC)
Max El. Az.
Max El.
End time (UTC)
End Az.
5 mins2025-06-12 22:04:48.132Z353.498° N2025-06-12 22:06:48.132Z301.218° NW34.232°2025-06-12 22:09:48.132Z214.168° SW
4 mins2025-06-13 08:31:48.132Z127.15° SE2025-06-13 08:33:48.132Z53.009° ENE29.814°2025-06-13 08:35:48.132Z9.021° NNE
|